Time,TemperatureF,DewpointF,PressureIn,WindDirection,WindDirectionDegrees,WindSpeedMPH,WindSpeedGustMPH,Humidity,HourlyPrecipIn,Conditions,Clouds,dailyrainin,SolarRadiationWatts/m^2,SoftwareType,DateUTC
2013-08-03 00:02:00,97.0,72.0,-100.00,South,178,4.0,10.0,45,0.00,,,0.00,421.000000,,2013-08-03 00:02:00,
2013-08-03 00:33:00,94.0,72.0,-100.00,South,182,4.0,7.0,50,0.00,,,0.00,193.000000,,2013-08-03 00:33:00,
2013-08-03 00:43:00,94.0,72.0,-100.00,South,182,4.0,7.0,50,0.00,,,0.00,193.000000,,2013-08-03 00:43:00,
2013-08-03 00:52:00,94.0,72.0,-100.00,South,182,4.0,7.0,50,0.00,,,0.00,193.000000,,2013-08-03 00:52:00,
2013-08-03 01:02:00,94.0,72.0,-100.00,South,182,4.0,7.0,50,0.00,,,0.00,193.000000,,2013-08-03 01:02:00,
2013-08-03 01:33:00,87.0,75.0,-100.00,South,182,4.0,6.0,68,0.00,,,0.00,33.000000,,2013-08-03 01:33:00,
2013-08-03 01:43:00,87.0,75.0,-100.00,South,182,4.0,6.0,68,0.00,,,0.00,33.000000,,2013-08-03 01:43:00,
2013-08-03 01:53:00,87.0,75.0,-100.00,South,182,4.0,6.0,68,0.00,,,0.00,33.000000,,2013-08-03 01:53:00,
2013-08-03 02:02:00,87.0,75.0,-100.00,South,182,4.0,6.0,68,0.00,,,0.00,33.000000,,2013-08-03 02:02:00,
2013-08-03 02:32:00,85.0,75.0,-100.00,South,182,6.0,9.0,72,0.00,,,0.00,1.000000,,2013-08-03 02:32:00,
2013-08-03 02:43:00,85.0,75.0,-100.00,South,182,6.0,9.0,72,0.00,,,0.00,1.000000,,2013-08-03 02:43:00,
2013-08-03 02:52:00,85.0,75.0,-100.00,South,182,6.0,9.0,72,0.00,,,0.00,1.000000,,2013-08-03 02:52:00,
2013-08-03 03:02:00,85.0,75.0,-100.00,South,182,6.0,9.0,72,0.00,,,0.00,1.000000,,2013-08-03 03:02:00,
2013-08-03 03:32:00,83.0,74.0,-100.00,SSW,199,5.0,11.0,75,0.00,,,0.00,0.000000,,2013-08-03 03:32:00,
2013-08-03 03:43:00,83.0,74.0,-100.00,SSW,199,5.0,11.0,75,0.00,,,0.00,0.000000,,2013-08-03 03:43:00,
2013-08-03 03:53:00,83.0,74.0,-100.00,SSW,199,5.0,11.0,75,0.00,,,0.00,0.000000,,2013-08-03 03:53:00,
2013-08-03 04:02:00,83.0,74.0,-100.00,SSW,199,5.0,11.0,75,0.00,,,0.00,0.000000,,2013-08-03 04:02:00,
2013-08-03 04:32:00,81.0,73.0,-100.00,SSW,207,5.0,10.0,78,0.00,,,0.00,0.000000,,2013-08-03 04:32:00,
2013-08-03 04:43:00,81.0,73.0,-100.00,SSW,207,5.0,10.0,78,0.00,,,0.00,0.000000,,2013-08-03 04:43:00,
2013-08-03 04:53:00,81.0,73.0,-100.00,SSW,207,5.0,10.0,78,0.00,,,0.00,0.000000,,2013-08-03 04:53:00,
2013-08-03 05:02:00,81.0,73.0,-100.00,SSW,207,5.0,10.0,78,0.00,,,0.00,0.000000,,2013-08-03 05:02:00,
2013-08-03 05:32:00,79.0,72.0,-100.00,SW,218,4.0,8.0,80,0.00,,,0.00,0.000000,,2013-08-03 05:32:00,
2013-08-03 05:42:00,79.0,72.0,-100.00,SW,218,4.0,8.0,80,0.00,,,0.00,0.000000,,2013-08-03 05:42:00,
2013-08-03 05:52:00,79.0,72.0,-100.00,SW,218,4.0,8.0,80,0.00,,,0.00,0.000000,,2013-08-03 05:52:00,
2013-08-03 06:02:00,79.0,72.0,-100.00,SW,218,4.0,8.0,80,0.00,,,0.00,0.000000,,2013-08-03 06:02:00,
2013-08-03 06:33:00,78.0,73.0,-100.00,South,191,4.0,6.0,85,0.00,,,0.00,0.000000,,2013-08-03 06:33:00,
2013-08-03 06:42:00,78.0,73.0,-100.00,South,191,4.0,6.0,85,0.00,,,0.00,0.000000,,2013-08-03 06:42:00,
2013-08-03 06:52:00,78.0,73.0,-100.00,South,191,4.0,6.0,85,0.00,,,0.00,0.000000,,2013-08-03 06:52:00,
2013-08-03 07:02:00,78.0,73.0,-100.00,South,191,4.0,6.0,85,0.00,,,0.00,0.000000,,2013-08-03 07:02:00,
2013-08-03 07:32:00,77.0,73.0,-100.00,SW,214,4.0,6.0,88,0.00,,,0.00,0.000000,,2013-08-03 07:32:00,
2013-08-03 07:43:00,77.0,73.0,-100.00,SW,214,4.0,6.0,88,0.00,,,0.00,0.000000,,2013-08-03 07:43:00,
2013-08-03 07:53:00,77.0,73.0,-100.00,SW,214,4.0,6.0,88,0.00,,,0.00,0.000000,,2013-08-03 07:53:00,
2013-08-03 08:02:00,77.0,73.0,-100.00,SW,214,4.0,6.0,88,0.00,,,0.00,0.000000,,2013-08-03 08:02:00,
2013-08-03 08:32:00,76.0,73.0,-100.00,SSW,209,4.0,7.0,91,0.00,,,0.00,0.000000,,2013-08-03 08:32:00,
2013-08-03 08:43:00,76.0,73.0,-100.00,SSW,209,4.0,7.0,91,0.00,,,0.00,0.000000,,2013-08-03 08:43:00,
2013-08-03 08:52:00,76.0,73.0,-100.00,SSW,209,4.0,7.0,91,0.00,,,0.00,0.000000,,2013-08-03 08:52:00,
2013-08-03 09:02:00,76.0,73.0,-100.00,SSW,209,4.0,7.0,91,0.00,,,0.00,0.000000,,2013-08-03 09:02:00,
2013-08-03 09:32:00,76.0,74.0,-100.00,SW,218,3.0,6.0,92,0.00,,,0.00,0.000000,,2013-08-03 09:32:00,
2013-08-03 09:43:00,76.0,74.0,-100.00,SW,218,3.0,6.0,92,0.00,,,0.00,0.000000,,2013-08-03 09:43:00,
2013-08-03 09:53:00,76.0,74.0,-100.00,SW,218,3.0,6.0,92,0.00,,,0.00,0.000000,,2013-08-03 09:53:00,
2013-08-03 10:02:00,76.0,74.0,-100.00,SW,218,3.0,6.0,92,0.00,,,0.00,0.000000,,2013-08-03 10:02:00,
2013-08-03 10:32:00,74.0,72.0,-100.00,WSW,240,1.0,5.0,94,0.00,,,0.00,0.000000,,2013-08-03 10:32:00,
2013-08-03 10:43:00,74.0,72.0,-100.00,WSW,240,1.0,5.0,94,0.00,,,0.00,0.000000,,2013-08-03 10:43:00,
2013-08-03 10:53:00,74.0,72.0,-100.00,WSW,240,1.0,5.0,94,0.00,,,0.00,0.000000,,2013-08-03 10:53:00,
2013-08-03 11:02:00,74.0,72.0,-100.00,WSW,240,1.0,5.0,94,0.00,,,0.00,0.000000,,2013-08-03 11:02:00,
2013-08-03 11:32:00,74.0,72.0,-100.00,South,170,1.0,2.0,95,0.00,,,0.00,0.000000,,2013-08-03 11:32:00,
2013-08-03 11:43:00,74.0,72.0,-100.00,South,170,1.0,2.0,95,0.00,,,0.00,0.000000,,2013-08-03 11:43:00,
2013-08-03 11:53:00,74.0,72.0,-100.00,South,170,1.0,2.0,95,0.00,,,0.00,0.000000,,2013-08-03 11:53:00,
2013-08-03 12:03:00,74.0,72.0,-100.00,South,170,1.0,2.0,95,0.00,,,0.00,0.000000,,2013-08-03 12:03:00,
2013-08-03 12:33:00,73.0,72.0,-100.00,South,170,3.0,3.0,96,0.00,,,0.00,4.000000,,2013-08-03 12:33:00,
2013-08-03 12:43:00,73.0,72.0,-100.00,South,170,3.0,3.0,96,0.00,,,0.00,4.000000,,2013-08-03 12:43:00,
2013-08-03 12:53:00,73.0,72.0,-100.00,South,170,3.0,3.0,96,0.00,,,0.00,4.000000,,2013-08-03 12:53:00,
2013-08-03 13:02:00,73.0,72.0,-100.00,South,170,3.0,3.0,96,0.00,,,0.00,4.000000,,2013-08-03 13:02:00,
2013-08-03 13:33:00,75.0,74.0,-100.00,WSW,244,2.0,6.0,96,0.00,,,0.00,29.000000,,2013-08-03 13:33:00,
2013-08-03 13:43:00,75.0,74.0,-100.00,WSW,244,2.0,6.0,96,0.00,,,0.00,29.000000,,2013-08-03 13:43:00,
2013-08-03 13:52:00,75.0,74.0,-100.00,WSW,244,2.0,6.0,96,0.00,,,0.00,29.000000,,2013-08-03 13:52:00,
2013-08-03 14:02:00,75.0,74.0,-100.00,WSW,244,2.0,6.0,96,0.00,,,0.00,29.000000,,2013-08-03 14:02:00,
2013-08-03 14:33:00,82.0,77.0,-100.00,SW,230,6.0,14.0,84,0.00,,,0.00,49.000000,,2013-08-03 14:33:00,
2013-08-03 14:43:00,82.0,77.0,-100.00,SW,230,6.0,14.0,84,0.00,,,0.00,49.000000,,2013-08-03 14:43:00,
2013-08-03 14:52:00,82.0,77.0,-100.00,SW,230,6.0,14.0,84,0.00,,,0.00,49.000000,,2013-08-03 14:52:00,
2013-08-03 15:02:00,82.0,77.0,-100.00,SW,230,6.0,14.0,84,0.00,,,0.00,49.000000,,2013-08-03 15:02:00,
2013-08-03 15:32:00,86.0,76.0,-100.00,SW,224,6.0,14.0,72,0.00,,,0.00,198.000000,,2013-08-03 15:32:00,
2013-08-03 15:43:00,86.0,76.0,-100.00,SW,224,6.0,14.0,72,0.00,,,0.00,198.000000,,2013-08-03 15:43:00,
2013-08-03 15:53:00,86.0,76.0,-100.00,SW,224,6.0,14.0,72,0.00,,,0.00,198.000000,,2013-08-03 15:53:00,
2013-08-03 16:02:00,86.0,76.0,-100.00,SW,224,6.0,14.0,72,0.00,,,0.00,198.000000,,2013-08-03 16:02:00,
2013-08-03 16:33:00,90.0,74.0,-100.00,SW,227,5.0,14.0,60,0.00,,,0.00,611.000000,,2013-08-03 16:33:00,
2013-08-03 16:43:00,90.0,74.0,-100.00,SW,227,5.0,14.0,60,0.00,,,0.00,611.000000,,2013-08-03 16:43:00,
2013-08-03 16:53:00,90.0,74.0,-100.00,SW,227,5.0,14.0,60,0.00,,,0.00,611.000000,,2013-08-03 16:53:00,
2013-08-03 17:03:00,90.0,74.0,-100.00,SW,227,5.0,14.0,60,0.00,,,0.00,611.000000,,2013-08-03 17:03:00,
2013-08-03 17:32:00,92.0,74.0,-100.00,SW,221,6.0,10.0,56,0.00,,,-99.99,672.000000,,2013-08-03 17:32:00,
2013-08-03 17:43:00,92.0,74.0,-100.00,SW,221,6.0,10.0,56,0.00,,,-99.99,672.000000,,2013-08-03 17:43:00,
2013-08-03 17:52:00,92.0,74.0,-100.00,SW,221,6.0,10.0,56,0.00,,,-99.99,672.000000,,2013-08-03 17:52:00,
2013-08-03 18:02:00,92.0,74.0,-100.00,SW,221,6.0,10.0,56,0.00,,,-99.99,672.000000,,2013-08-03 18:02:00,
2013-08-03 18:32:00,94.0,72.0,-100.00,South,184,7.0,15.0,50,0.00,,,0.00,763.000000,,2013-08-03 18:32:00,
2013-08-03 18:43:00,94.0,72.0,-100.00,South,184,7.0,15.0,50,0.00,,,0.00,763.000000,,2013-08-03 18:43:00,
2013-08-03 18:53:00,94.0,72.0,-100.00,South,184,7.0,15.0,50,0.00,,,0.00,763.000000,,2013-08-03 18:53:00,
2013-08-03 19:02:00,94.0,72.0,-100.00,South,184,7.0,15.0,50,0.00,,,0.00,763.000000,,2013-08-03 19:02:00,
2013-08-03 19:32:00,95.0,70.0,-100.00,SSE,150,4.0,13.0,45,0.00,,,0.00,887.000000,,2013-08-03 19:32:00,
2013-08-03 19:43:00,95.0,70.0,-100.00,SSE,150,4.0,13.0,45,0.00,,,0.00,887.000000,,2013-08-03 19:43:00,
2013-08-03 19:53:00,95.0,70.0,-100.00,SSE,150,4.0,13.0,45,0.00,,,0.00,887.000000,,2013-08-03 19:53:00,
2013-08-03 20:02:00,95.0,70.0,-100.00,SSE,150,4.0,13.0,45,0.00,,,0.00,887.000000,,2013-08-03 20:02:00,
2013-08-03 20:32:00,97.0,71.0,-100.00,WSW,255,3.0,9.0,43,0.00,,,0.00,731.000000,,2013-08-03 20:32:00,
2013-08-03 20:42:00,97.0,71.0,-100.00,WSW,255,3.0,9.0,43,0.00,,,0.00,731.000000,,2013-08-03 20:42:00,
2013-08-03 20:52:00,97.0,71.0,-100.00,WSW,255,3.0,9.0,43,0.00,,,0.00,731.000000,,2013-08-03 20:52:00,
2013-08-03 21:02:00,97.0,71.0,-100.00,WSW,255,3.0,9.0,43,0.00,,,0.00,731.000000,,2013-08-03 21:02:00,
2013-08-03 22:33:00,97.0,71.0,-100.00,SSW,199,2.0,7.0,44,-99.99,,,0.00,578.000000,,2013-08-03 22:33:00,
2013-08-03 22:43:00,97.0,71.0,-100.00,SSW,199,2.0,7.0,44,-99.99,,,0.00,578.000000,,2013-08-03 22:43:00,
2013-08-03 22:52:00,97.0,71.0,-100.00,SSW,199,2.0,7.0,44,-99.99,,,0.00,578.000000,,2013-08-03 22:52:00,
2013-08-03 23:02:00,97.0,71.0,-100.00,SSW,199,2.0,7.0,44,-99.99,,,0.00,578.000000,,2013-08-03 23:02:00,
2013-08-03 23:32:00,94.0,71.0,-100.00,SSE,152,3.0,8.0,48,0.00,,,0.00,250.000000,,2013-08-03 23:32:00,
2013-08-03 23:43:00,94.0,71.0,-100.00,SSE,152,3.0,8.0,48,0.00,,,0.00,250.000000,,2013-08-03 23:43:00,
2013-08-03 23:52:00,94.0,71.0,-100.00,SSE,152,3.0,8.0,48,0.00,,,0.00,250.000000,,2013-08-03 23:52:00,